Snowfall_Accumulation
0.2 0.0 0.0 0.0 0.0 0.0 0.0 0.0 2.5 0.0 0.0 0.0 0.0 0.0 0.0 0.0 0.0 0.0 0.0 0.0 0.0 0.0 0.0 0.0 0.0 0.0 0.0 0.0 0.0 0.0 0.0 0.0 0.1 0.0 0.0 0.0 0.0 0.0 0.0 0.0 0.0 0.0 0.0 0.0
3.6 0.2 0.2 0.2 0.0 0.0 0.0 0.0 0.0 0.0 0.0 0.0 0.0 0.0 0.0 0.0 0.0 0.0 0.0 0.0 0.0 0.0 0.0 0.0 0.0 0.0 0.0 0.0 0.0 0.0 0.1 0.3 0.1 0.1 0.1 0.1 0.0 0.0 0.0 0.0 0.0 0.1 0.0 0.0
2.5 1.0 1.3 3.6 0.1 0.0 0.0 0.0 0.0 0.0 0.0 0.0 0.0 0.0 0.0 0.0 0.0 0.0 0.0 0.0 0.0 0.0 0.0 0.0 0.0 0.0 0.0 0.0 0.0 0.0 0.0 1.2 0.8 0.3 2.9 0.4 0.0 0.1 0.1 0.4 0.2 0.2 0.3 0.2
5.7 2.2 10.6 0.4 0.0 0.0 0.0 0.0 0.0 0.0 0.0 0.0 0.0 0.0 0.0 0.0 0.0 0.0 0.0 0.0 0.0 0.0 0.0 0.0 0.0 0.0 0.0 0.0 0.0 0.0 0.0 0.0 0.4 0.5 2.7 6.2 2.1 3.1 4.0 1.7 2.6 1.8 2.2 2.5
10.6 2.8 0.2 0.0 0.0 0.0 0.0 0.1 0.0 0.0 0.0 0.0 0.0 0.0 0.0 0.0 0.0 0.0 0.0 0.0 0.0 0.0 0.0 0.0 0.0 0.0 0.0 0.0 0.0 0.0 0.0 0.0 0.0 0.3 1.8 3.6 6.4 8.2 6.6 5.7 5.6 5.4 2.7 3.4
7.1 4.2 3.9 0.0 0.0 0.0 0.0 0.8 0.0 0.0 0.0 0.0 0.0 0.1 0.1 0.0 0.0 0.0 0.0 0.0 0.0 0.0 0.0 0.0 0.0 0.0 0.0 0.0 0.0 0.0 0.0 0.0 0.0 0.0 0.1 0.7 2.3 5.5 5.4 2.7 5.2 4.0 5.2 3.6
5.0 4.2 0.8 0.0 0.0 0.0 1.5 0.2 0.0 0.0 0.0 0.0 0.1 0.0 0.0 0.0 0.0 0.0 0.0 0.1 0.0 0.0 0.0 0.0 0.0 0.0 0.1 0.5 0.5 0.1 0.1 0.0 0.0 0.0 0.1 0.5 1.8 2.8 2.8 2.7 2.8 3.2 3.5 4.0
3.9 8.6 5.6 0.0 0.0 0.3 0.4 0.0 0.0 0.0 0.0 0.0 0.0 0.0 0.0 0.0 0.0 0.0 0.0 0.0 0.2 0.1 0.2 0.2 0.2 0.2 0.4 0.5 2.6 1.9 1.0 0.8 0.6 0.3 0.5 1.2 2.4 2.8 2.8 3.3 3.3 2.6 2.6 3.7
0.8 2.4 0.0 0.0 0.0 0.0 0.0 0.0 0.0 0.0 0.0 0.0 0.0 0.0 0.0 0.0 0.0 0.0 0.0 0.0 0.0 0.2 0.6 0.6 0.2 0.2 1.5 1.9 2.0 2.2 2.9 3.3 2.7 2.2 2.9 2.8 3.7 5.1 5.4 3.7 3.8 2.7 2.9 3.2
0.2 0.0 0.0 0.0 0.0 0.0 0.0 0.0 0.0 0.0 0.0 0.0 0.0 0.0 0.0 0.0 0.0 0.0 0.0 0.0 0.0 0.0 0.1 0.9 1.2 0.3 0.5 1.9 1.7 2.0 2.6 2.9 3.4 4.7 3.5 4.1 3.8 4.3 4.4 5.4 5.9 3.9 3.5 4.8
0.0 0.0 0.0 0.0 0.0 0.0 0.0 0.0 0.0 0.0 0.0 0.0 0.0 0.0 0.0 0.0 0.0 0.0 0.0 0.0 0.0 0.0 0.0 0.2 0.3 0.9 1.6 1.8 1.5 1.9 1.2 3.0 3.4 3.2 2.5 4.8 5.1 4.4 3.8 4.0 2.9 3.6 3.8 3.4
0.7 0.0 0.0 0.0 0.0 0.0 0.0 0.0 0.0 0.0 0.0 0.0 0.0 0.0 0.0 0.0 0.0 0.0 0.0 0.0 0.0 0.0 0.0 0.0 0.0 0.1 0.2 0.3 0.9 2.0 2.8 3.1 4.2 5.3 4.4 4.2 5.4 7.3 nan nan nan nan nan 3.2
0.0 0.0 0.0 0.0 0.0 0.0 0.0 0.0 0.0 0.0 0.0 0.0 0.0 0.0 0.0 0.0 0.0 nan 0.0 0.0 0.0 0.0 0.0 0.0 0.1 0.1 0.0 0.1 0.0 0.2 0.7 1.2 4.0 4.2 6.1 5.9 6.0 6.3 7.8 10.2 nan nan nan nan
0.0 0.0 0.0 0.0 0.0 0.0 0.0 0.0 0.0 0.0 0.0 0.0 0.0 0.0 0.0 0.0 0.0 0.0 0.0 0.0 0.0 0.0 0.0 0.0 0.1 0.2 0.1 0.0 0.1 0.2 0.3 0.3 1.4 2.0 2.9 4.1 6.0 4.8 4.3 6.1 7.6 8.6 nan nan
0.0 0.0 0.0 0.0 0.0 0.0 0.0 0.0 0.0 0.0 0.0 0.0 0.1 0.2 0.0 0.0 0.0 0.0 0.0 0.0 0.0 0.0 0.0 0.0 0.0 0.1 0.0 0.1 0.2 0.3 0.5 1.1 1.4 2.4 2.8 3.0 2.9 3.2 4.6 5.3 5.9 6.8 6.4 4.0
0.0 0.0 0.0 0.0 0.0 0.0 0.0 0.0 0.0 0.0 0.1 0.0 0.0 0.0 0.0 0.0 0.0 0.0 0.0 0.0 0.1 0.2 0.0 1.5 0.1 0.2 0.2 0.2 0.2 0.3 1.3 1.0 1.5 2.4 2.6 2.9 2.8 2.8 3.1 3.5 4.1 4.5 4.8 5.6
0.0 0.0 0.0 0.0 0.0 0.0 0.0 0.0 0.1 0.1 0.1 0.1 0.0 0.0 0.0 0.1 0.0 0.1 0.0 0.0 0.3 0.5 0.2 0.3 2.0 2.4 2.7 1.6 0.3 1.0 1.1 1.3 0.0 1.9 2.0 1.7 1.8 2.2 2.0 2.6 3.0 3.1 5.2 7.5
0.0 0.0 0.0 0.1 0.0 0.0 0.0 0.1 0.3 0.1 0.2 0.2 0.3 1.5 2.9 2.5 0.5 0.9 1.4 0.9 2.3 3.2 2.1 2.3 2.6 3.0 2.9 0.9 0.3 0.6 0.9 1.0 1.0 1.3 1.1 2.0 1.5 1.2 1.8 1.9 1.9 2.4 3.9 11.3
0.0 0.5 0.1 0.1 0.1 0.2 0.4 0.1 0.1 0.3 2.2 2.6 2.7 2.7 2.6 3.8 3.0 3.9 4.5 7.1 7.7 3.3 4.9 3.6 0.0 0.2 0.2 0.2 0.1 0.6 0.9 1.6 0.9 0.7 0.8 4.0 2.9 1.4 2.5 3.1 2.9 4.8 3.9 4.9
0.4 0.4 0.8 0.3 0.1 0.1 0.2 1.4 1.4 1.8 2.2 1.6 3.9 5.1 4.1 6.9 6.8 7.4 4.4 2.9 1.6 2.0 0.9 0.4 0.7 0.3 0.7 0.1 0.4 0.3 1.0 1.7 1.1 2.4 3.6 1.9 5.3 8.4 5.3 5.8 3.5 5.5 11.1 8.6
0.1 0.2 0.9 1.9 4.0 3.5 4.1 4.4 4.5 4.9 4.5 5.3 5.4 7.6 7.3 4.8 4.6 5.7 2.7 1.3 1.2 0.7 0.2 0.0 0.3 0.5 0.5 0.7 1.2 2.7 2.8 4.9 4.9 3.3 5.6 7.5 11.0 7.3 8.2 9.3 8.6 11.2 14.3 10.7
0.3 1.2 2.8 2.7 3.2 2.6 4.1 3.2 1.6 4.6 4.9 6.7 9.4 10.2 7.4 3.0 3.7 3.3 4.2 1.1 1.1 0.9 0.9 0.9 0.5 1.4 1.4 3.4 1.0 4.6 3.6 2.7 3.3 3.4 4.3 7.5 8.8 14.1 14.2 11.8 12.4 13.5 13.3 13.8
0.5 0.5 1.2 2.7 2.2 1.5 1.9 2.5 5.3 3.9 7.6 7.0 8.1 4.9 2.9 2.1 1.6 2.2 2.8 0.7 1.5 2.7 1.5 2.4 3.6 4.0 4.4 4.6 4.5 5.7 6.2 7.2 7.5 7.0 7.4 11.9 11.9 18.5 10.5 10.7 11.9 12.0 16.8 11.7
0.5 0.5 0.8 1.4 1.2 0.3 0.5 0.6 0.2 0.3 5.6 1.1 2.7 4.8 0.3 3.0 4.6 1.3 1.4 4.2 4.4 10.3 6.0 6.4 6.1 5.0 5.1 7.3 7.9 9.3 8.3 9.4 10.5 11.8 6.3 7.9 15.6 12.6 10.2 16.1 10.7 12.2 14.5 12.8
0.3 0.4 0.4 0.3 0.2 0.8 0.1 0.1 0.2 0.2 0.1 0.2 0.1 0.2 0.2 0.6 3.0 2.4 2.8 3.1 4.9 3.1 4.5 6.6 5.6 6.1 10.5 11.2 11.0 11.2 11.8 10.0 11.9 13.8 10.0 14.7 13.4 19.4 16.6 12.9 16.3 16.4 18.1 16.5
0.0 0.4 0.3 0.0 0.2 0.2 0.3 0.3 0.7 0.6 0.6 3.3 2.0 7.4 4.9 1.9 1.7 1.9 2.9 4.6 2.5 4.8 3.9 11.5 13.8 12.7 11.7 7.6 10.0 10.9 8.3 7.2 9.3 10.0 12.0 12.0 11.6 9.4 12.6 11.5 16.3 20.9 26.8 29.0
0.3 0.1 0.3 0.3 0.3 0.3 0.4 0.4 1.3 2.3 3.0 4.1 5.4 5.4 3.3 5.2 6.7 4.3 5.8 6.8 7.7 9.0 11.2 13.9 10.9 8.5 6.9 10.9 10.2 9.0 9.3 10.1 9.3 6.8 15.4 18.8 18.4 25.0 24.2 23.7 27.0 28.4 26.2 23.4
Water_Equivalent
0.05 0.00 0.00 0.00 0.00 0.00 0.01 0.00 0.51 0.01 0.00 0.00 0.00 0.00 0.00 0.00 0.00 0.00 0.00 0.00 0.00 0.00 0.00 0.00 0.00 0.00 0.00 0.00 0.00 0.02 0.01 0.02 0.03 0.01 0.01 0.00 0.00 0.00 0.00 0.00 0.00 0.00 0.00 0.00
0.97 0.04 0.03 0.04 0.00 0.00 0.00 0.00 0.00 0.00 0.00 0.00 0.00 0.00 0.00 0.00 0.00 0.00 0.00 0.00 0.00 0.00 0.00 0.00 0.00 0.00 0.00 0.00 0.00 0.00 0.02 0.10 0.03 0.02 0.03 0.02 0.01 0.00 0.00 0.00 0.01 0.04 0.01 0.01
0.35 0.17 0.22 0.54 0.01 0.00 0.00 0.00 0.00 0.00 0.00 0.00 0.00 0.00 0.00 0.00 0.00 0.00 0.00 0.00 0.00 0.00 0.00 0.00 0.00 0.00 0.00 0.00 0.00 0.00 0.01 0.48 0.32 0.11 1.17 0.16 0.01 0.02 0.05 0.16 0.08 0.07 0.09 0.08
0.87 0.32 1.26 0.06 0.00 0.00 0.00 0.00 0.00 0.00 0.00 0.00 0.00 0.00 0.00 0.00 0.00 0.00 0.00 0.00 0.00 0.00 0.00 0.00 0.00 0.00 0.00 0.00 0.00 0.00 0.00 0.00 0.17 0.15 1.08 2.49 0.83 1.13 1.42 0.59 0.88 0.55 0.63 0.70
1.56 0.39 0.03 0.00 0.00 0.00 0.01 0.01 0.00 0.00 0.00 0.00 0.00 0.00 0.00 0.00 0.00 0.00 0.00 0.00 0.00 0.00 0.00 0.00 0.00 0.00 0.00 0.00 0.00 0.00 0.00 0.00 0.00 0.10 0.64 1.21 2.18 2.69 2.07 1.88 1.79 1.66 0.77 0.89
1.00 0.49 0.50 0.00 0.00 0.00 0.00 0.22 0.00 0.00 0.00 0.00 0.00 0.04 0.04 0.00 0.00 0.00 0.00 0.00 0.00 0.00 0.00 0.00 0.00 0.00 0.00 0.00 0.00 0.00 0.00 0.00 0.00 0.00 0.02 0.19 0.55 1.46 1.58 0.66 1.38 1.10 1.37 1.02
0.71 0.56 0.13 0.00 0.00 0.00 0.30 0.04 0.00 0.00 0.00 0.00 0.04 0.00 0.00 0.00 0.00 0.00 0.00 0.03 0.00 0.00 0.00 0.00 0.01 0.00 0.03 0.19 0.16 0.04 0.03 0.00 0.00 0.00 0.02 0.13 0.41 0.62 0.60 0.54 0.52 0.58 0.66 0.80
0.60 1.19 0.60 0.00 0.00 0.05 0.08 0.00 0.00 0.00 0.00 0.00 0.00 0.00 0.00 0.00 0.00 0.00 0.00 0.00 0.07 0.04 0.08 0.05 0.07 0.06 0.15 0.17 1.04 0.76 0.33 0.26 0.21 0.11 0.16 0.33 0.56 0.63 0.67 0.66 0.56 0.42 0.41 0.61
0.17 0.46 0.00 0.00 0.00 0.00 0.00 0.00 0.00 0.00 0.00 0.00 0.00 0.00 0.00 0.00 0.00 0.00 0.00 0.00 0.00 0.06 0.19 0.15 0.06 0.09 0.49 0.61 0.76 0.80 1.05 1.06 0.88 0.82 0.94 0.79 0.95 1.10 1.11 0.74 0.73 0.44 0.54 0.61
0.03 0.00 0.00 0.00 0.00 0.00 0.00 0.00 0.00 0.00 0.00 0.00 0.00 0.00 0.00 0.00 0.00 0.00 0.00 0.00 0.00 0.00 0.04 0.24 0.34 0.10 0.16 0.58 0.47 0.71 0.77 0.83 1.02 1.37 0.97 1.12 1.01 1.12 1.07 1.18 1.18 0.84 0.70 0.90
0.01 0.00 0.00 0.00 0.00 0.00 0.00 0.00 0.00 0.00 0.00 0.00 0.00 0.00 0.00 0.00 0.00 0.00 0.00 0.00 0.00 0.00 0.00 0.05 0.08 0.20 0.39 0.48 0.41 0.61 0.32 0.88 0.87 0.79 0.56 1.02 1.05 0.98 0.88 0.87 0.63 0.72 0.75 0.67
0.16 0.00 0.00 0.00 0.00 0.00 0.00 0.00 0.00 0.00 0.00 0.00 0.00 0.00 0.00 0.00 0.00 0.00 0.00 0.00 0.00 0.00 0.00 0.00 0.01 0.01 0.05 0.08 0.20 0.54 0.87 0.83 1.11 1.43 1.01 0.88 0.99 1.30 nan nan nan nan nan 0.69
0.01 0.00 0.00 0.00 0.00 0.00 0.00 0.00 0.00 0.00 0.00 0.00 0.00 0.00 0.00 0.00 0.00 nan 0.00 0.00 0.00 0.00 0.00 0.01 0.01 0.02 0.01 0.01 0.00 0.05 0.14 0.23 0.99 1.06 1.33 1.05 1.06 1.03 1.19 1.78 nan nan nan nan
0.00 0.00 0.01 0.00 0.02 0.00 0.00 0.00 0.00 0.00 0.00 0.00 0.00 0.00 0.00 0.00 0.00 0.00 0.00 0.00 0.00 0.00 0.00 0.00 0.02 0.05 0.03 0.00 0.03 0.05 0.06 0.11 0.32 0.42 0.57 0.81 1.08 0.91 0.84 1.11 1.34 1.35 nan nan
0.00 0.00 0.00 0.00 0.00 0.00 0.00 0.00 0.00 0.00 0.00 0.00 0.02 0.04 0.00 0.00 0.00 0.00 0.00 0.00 0.00 0.00 0.00 0.00 0.01 0.04 0.01 0.03 0.05 0.07 0.13 0.27 0.36 0.59 0.70 0.71 0.69 0.72 0.91 1.04 1.10 1.17 1.09 0.84
0.00 0.00 0.00 0.00 0.00 0.00 0.00 0.00 0.00 0.00 0.02 0.00 0.00 0.00 0.00 0.00 0.00 0.00 0.00 0.00 0.03 0.05 0.00 0.37 0.03 0.05 0.05 0.04 0.04 0.08 0.33 0.31 0.40 0.61 0.65 0.70 0.67 0.64 0.66 0.71 0.80 0.82 0.79 0.87
0.00 0.00 0.00 0.00 0.00 0.00 0.00 0.00 0.02 0.03 0.02 0.02 0.00 0.00 0.00 0.02 0.01 0.03 0.01 0.00 0.08 0.12 0.04 0.06 0.40 0.52 0.60 0.39 0.08 0.25 0.28 0.35 0.00 0.45 0.46 0.40 0.42 0.51 0.43 0.54 0.58 0.55 0.90 1.43
0.00 0.00 0.00 0.01 0.00 0.00 0.01 0.03 0.06 0.02 0.04 0.03 0.08 0.37 0.67 0.55 0.09 0.16 0.26 0.19 0.48 0.66 0.42 0.44 0.49 0.56 0.56 0.19 0.06 0.15 0.22 0.26 0.26 0.33 0.28 0.48 0.34 0.29 0.40 0.42 0.41 0.50 0.74 2.49
0.00 0.13 0.03 0.02 0.02 0.05 0.07 0.03 0.02 0.07 0.52 0.58 0.70 0.63 0.60 0.88 0.64 0.81 0.91 1.56 1.71 0.63 0.92 0.69 0.00 0.05 0.03 0.04 0.04 0.16 0.24 0.45 0.24 0.18 0.21 1.29 0.68 0.32 0.56 0.69 0.62 1.03 0.73 0.79
0.09 0.08 0.18 0.06 0.02 0.03 0.05 0.33 0.34 0.40 0.50 0.37 1.03 1.24 0.82 1.44 1.46 1.60 0.88 0.55 0.29 0.43 0.17 0.08 0.14 0.07 0.17 0.02 0.12 0.10 0.29 0.50 0.32 0.62 0.88 0.44 1.19 1.89 1.13 1.87 0.74 1.17 2.26 1.65
0.02 0.07 0.24 0.46 0.96 0.88 1.04 1.11 1.02 1.03 0.92 1.19 1.25 1.66 1.51 0.95 0.96 1.25 0.55 0.28 0.20 0.13 0.03 0.00 0.07 0.13 0.12 0.14 0.26 0.72 0.73 1.29 1.25 0.76 1.33 1.79 2.49 1.63 1.85 2.15 1.96 2.47 2.95 2.14
0.08 0.28 0.65 0.61 0.72 0.54 0.90 0.70 0.35 0.90 0.94 1.33 1.97 2.22 1.55 0.53 0.74 0.66 0.91 0.25 0.25 0.30 0.23 0.22 0.13 0.46 0.43 1.11 0.25 1.18 0.87 0.66 0.80 0.82 1.00 1.74 1.91 2.94 2.96 2.53 2.49 2.91 2.89 3.00
0.12 0.13 0.27 0.58 0.48 0.32 0.38 0.50 1.09 0.84 1.46 1.36 1.62 0.99 0.62 0.45 0.37 0.50 0.57 0.13 0.32 0.82 0.33 0.56 1.15 1.31 1.45 1.27 1.21 1.49 1.57 1.75 1.78 1.61 1.68 2.65 2.50 3.99 2.10 2.10 2.41 2.42 3.49 2.30
0.13 0.11 0.18 0.32 0.27 0.07 0.10 0.12 0.04 0.07 1.04 0.22 0.57 1.05 0.08 0.73 1.19 0.28 0.32 1.40 1.45 3.19 1.60 1.68 1.73 1.64 1.68 1.97 2.00 2.28 2.02 2.26 2.39 2.60 1.27 2.50 3.49 2.60 1.99 3.09 1.83 2.39 2.71 2.39
0.08 0.08 0.09 0.07 0.04 0.20 0.03 0.02 0.04 0.04 0.03 0.05 0.02 0.04 0.04 0.15 0.80 0.56 0.78 0.82 1.58 0.90 1.18 2.04 1.85 2.03 2.71 2.81 2.56 2.52 2.55 2.12 2.46 2.87 1.96 3.06 2.80 4.11 3.42 2.43 2.92 3.06 3.12 2.82
0.01 0.12 0.10 0.00 0.05 0.08 0.09 0.09 0.19 0.16 0.15 0.69 0.44 1.73 1.29 0.55 0.45 0.48 0.75 1.37 0.59 1.54 0.88 2.57 3.32 3.15 2.88 1.68 2.26 2.38 1.73 1.36 1.83 1.83 2.15 2.14 2.11 1.68 2.11 1.92 2.72 3.54 4.49 5.00
0.09 0.03 0.09 0.08 0.08 0.10 0.12 0.12 0.34 0.55 0.84 1.04 1.10 1.17 0.74 1.21 1.52 1.17 1.82 1.60 1.77 1.82 2.36 2.99 2.47 2.43 1.47 2.42 2.06 1.73 1.63 1.73 2.65 1.12 2.47 2.94 2.76 3.90 3.46 3.54 4.10 4.59 3.86 3.23
SL_Ratio
4.8 nan nan nan nan nan 3.8 4.0 4.9 4.2 nan nan nan nan nan nan nan nan nan nan nan nan nan nan nan nan nan nan 2.5 2.6 2.7 2.5 2.6 2.8 3.0 3.3 nan nan nan nan nan nan nan nan
3.7 5.1 5.2 4.9 nan nan nan nan nan nan nan nan nan nan nan nan nan nan nan nan nan nan nan nan nan nan nan nan nan 5.0 3.0 2.9 2.9 2.6 2.5 2.6 2.7 0.0 nan nan 2.4 2.7 2.9 2.8
7.2 5.6 5.8 6.5 5.7 nan nan nan nan 5.0 nan nan nan nan nan nan nan nan nan nan nan nan nan nan nan nan nan nan nan nan 3.0 2.5 2.5 2.7 2.5 2.6 2.8 2.6 2.6 2.6 2.5 3.0 2.9 2.8
6.6 7.0 8.4 5.5 nan nan nan nan nan nan nan nan nan nan nan nan nan nan nan nan nan nan nan nan nan nan nan nan nan nan nan 2.7 2.6 3.0 2.5 2.5 2.5 2.7 2.9 2.9 3.0 3.3 3.5 3.6
6.8 7.1 6.4 5.0 nan nan 4.5 5.5 nan nan nan nan nan nan nan nan nan nan nan nan nan nan nan nan nan nan nan nan nan nan nan nan nan 2.8 2.9 3.0 3.0 3.1 3.2 3.1 3.1 3.3 3.5 3.8
7.1 8.7 7.7 6.7 nan nan nan 3.6 nan nan nan nan nan 3.8 2.5 nan nan nan nan nan nan nan nan nan nan nan 3.3 3.3 nan nan nan nan nan 0.0 2.5 3.5 4.3 3.7 3.4 4.1 3.7 3.7 3.8 3.5
7.0 7.4 6.4 3.6 nan nan 5.2 4.7 nan nan nan nan 2.6 nan nan nan nan nan nan 2.5 nan 2.5 nan 3.0 2.7 2.7 2.7 2.5 2.9 2.8 2.5 0.0 2.5 5.0 2.8 3.7 4.5 4.6 4.6 5.0 5.4 5.5 5.4 5.0
6.6 7.2 9.3 0.0 nan 5.6 4.7 nan nan nan nan 0.0 nan 2.7 2.5 nan nan nan nan 2.9 2.5 3.1 3.0 3.1 2.7 2.5 2.6 2.8 2.5 2.5 2.9 3.0 2.9 2.9 2.9 3.7 4.3 4.3 4.2 5.0 5.9 6.2 6.5 6.1
4.9 5.2 nan 4.0 nan nan nan nan nan nan nan nan 5.0 nan nan nan nan nan nan nan nan 3.1 3.2 3.7 3.5 2.7 3.1 3.2 2.6 2.8 2.8 3.1 3.1 2.7 3.1 3.5 3.9 4.7 4.9 5.0 5.2 6.1 5.4 5.3
4.9 5.0 nan nan nan nan nan nan nan nan nan nan nan nan nan nan nan nan nan nan nan nan 3.5 3.7 3.6 3.6 3.5 3.3 3.7 2.8 3.4 3.5 3.4 3.5 3.6 3.7 3.8 3.9 4.1 4.6 5.0 4.7 5.0 5.3
5.6 3.3 nan nan nan nan nan nan nan nan nan nan nan nan nan nan nan nan nan nan nan nan nan 3.9 4.1 4.2 4.0 3.7 3.7 3.1 3.8 3.5 3.9 4.0 4.5 4.7 4.9 4.5 4.4 4.5 4.5 5.0 5.1 5.0
4.0 5.0 nan nan nan nan nan nan nan nan nan nan nan nan nan nan nan nan nan nan nan nan nan 2.9 4.7 4.2 4.2 4.1 4.3 3.8 3.2 3.8 3.8 3.7 4.4 4.8 5.5 5.6 nan nan nan nan nan 4.6
2.7 nan nan nan nan nan nan nan nan nan nan nan nan nan nan nan nan nan nan nan nan nan nan 4.4 5.0 4.7 4.7 4.6 5.0 4.4 5.1 5.1 4.0 4.0 4.5 5.6 5.6 6.1 6.5 5.7 nan nan nan nan
nan 0.0 3.7 nan 2.6 nan nan nan nan nan nan nan nan nan nan nan nan nan nan nan nan nan nan 3.3 3.8 4.3 4.3 4.2 3.8 4.6 4.9 3.0 4.3 4.7 5.1 5.0 5.5 5.3 5.1 5.5 5.7 6.4 nan nan
nan nan nan nan nan nan nan nan nan nan nan nan 2.6 3.8 3.3 nan nan nan nan nan nan nan nan 0.0 3.2 3.8 4.1 3.8 4.2 4.8 4.1 4.1 4.0 4.0 4.0 4.1 4.2 4.4 5.0 5.0 5.3 5.8 5.9 4.8
nan nan nan nan nan nan nan nan nan 4.0 4.3 nan nan nan nan nan nan nan nan nan 3.1 3.4 5.0 4.1 4.3 4.5 4.1 4.1 4.3 4.4 3.8 3.2 3.8 4.0 4.0 4.1 4.2 4.4 4.7 4.9 5.2 5.5 6.0 6.4
5.0 5.0 nan nan nan nan nan 3.3 3.9 3.9 4.3 4.4 nan nan 5.0 4.1 3.5 4.5 3.7 3.3 4.0 4.1 4.1 4.5 5.0 4.5 4.5 4.0 4.1 3.8 4.0 3.9 2.7 4.2 4.3 4.2 4.2 4.3 4.6 4.8 5.2 5.6 5.7 5.3
nan 0.0 nan 3.8 nan 4.0 4.7 4.4 4.4 4.6 4.8 4.5 3.8 3.9 4.3 4.5 4.9 5.4 5.2 4.7 4.8 4.8 4.9 5.2 5.3 5.4 5.2 4.7 4.7 4.0 3.8 4.0 4.0 3.9 4.0 4.2 4.3 4.2 4.4 4.5 4.7 4.9 5.3 4.5
5.0 4.0 4.3 4.2 4.6 4.7 4.9 4.8 4.3 4.1 4.2 4.4 3.8 4.3 4.3 4.3 4.7 4.8 5.0 4.5 4.5 5.2 5.3 5.2 5.0 5.2 4.8 5.1 3.3 3.8 3.8 3.5 3.6 3.9 3.8 3.1 4.3 4.2 4.6 4.4 4.6 4.7 5.4 6.2
4.7 4.8 4.7 4.8 4.6 4.1 4.7 4.1 4.0 4.5 4.3 4.3 3.8 4.1 5.0 4.8 4.6 4.6 5.0 5.2 5.5 4.6 5.3 5.2 4.7 4.7 4.1 4.1 3.1 3.5 3.3 3.4 3.5 3.9 4.1 4.4 4.5 4.5 4.7 3.1 4.7 4.7 4.9 5.2
3.8 3.6 3.9 4.2 4.2 4.0 4.0 4.0 4.4 4.8 4.9 4.4 4.4 4.6 4.8 5.0 4.8 4.5 4.9 4.6 5.7 5.4 4.8 3.6 4.1 4.2 4.5 4.7 4.6 3.8 3.8 3.8 3.9 4.3 4.2 4.2 4.4 4.5 4.5 4.3 4.4 4.5 4.8 5.0
3.6 4.3 4.2 4.4 4.4 4.8 4.5 4.6 4.7 5.1 5.3 5.1 4.8 4.6 4.7 5.6 5.0 5.0 4.6 4.5 4.5 3.0 4.0 4.1 4.1 3.1 3.2 3.0 4.1 3.9 4.1 4.1 4.1 4.2 4.3 4.3 4.6 4.8 4.8 4.7 5.0 4.6 4.6 4.6
3.8 4.2 4.4 4.7 4.6 4.9 4.9 4.9 4.9 4.7 5.2 5.2 5.0 4.9 4.6 4.7 4.4 4.4 4.9 5.3 4.5 3.3 4.6 4.3 3.1 3.0 3.0 3.6 3.7 3.8 3.9 4.1 4.2 4.3 4.4 4.5 4.8 4.6 5.0 5.1 4.9 5.0 4.8 5.1
4.1 4.2 4.4 4.4 4.5 4.8 5.2 5.1 5.0 4.9 5.4 5.1 4.8 4.5 4.3 4.2 3.9 4.4 4.4 3.0 3.0 3.2 3.8 3.8 3.5 3.0 3.0 3.7 3.9 4.1 4.1 4.2 4.4 4.5 5.0 3.1 4.5 4.8 5.1 5.2 5.8 5.1 5.4 5.4
4.4 4.5 4.6 4.6 4.5 3.9 4.3 4.4 4.4 4.4 4.4 4.3 5.1 4.8 4.9 3.9 3.8 4.3 3.6 3.7 3.1 3.4 3.9 3.2 3.0 3.0 3.9 4.0 4.3 4.4 4.6 4.7 4.8 4.8 5.1 4.8 4.8 4.7 4.9 5.3 5.6 5.4 5.8 5.8
3.7 3.5 3.5 5.0 3.2 3.1 3.2 3.6 3.5 3.8 3.7 4.7 4.6 4.3 3.8 3.5 3.7 3.9 3.8 3.3 4.2 3.1 4.5 4.5 4.2 4.0 4.1 4.5 4.4 4.6 4.8 5.3 5.1 5.5 5.6 5.6 5.5 5.6 5.9 6.0 6.0 5.9 6.0 5.8
3.3 3.1 3.3 3.4 3.2 3.3 3.3 3.4 3.8 4.1 3.6 4.0 4.9 4.6 4.4 4.3 4.4 3.7 3.2 4.2 4.4 4.9 4.8 4.7 4.4 3.5 4.7 4.5 5.0 5.2 5.7 5.8 3.5 6.1 6.3 6.4 6.7 6.4 7.0 6.7 6.6 6.2 6.8 7.3